424  
ASUS43 KARX 200910  
RWRARX  
 
HOURLY WEATHER FOR THE UPPER MISSISSIPPI RIVER VALLEY  
NATIONAL WEATHER SERVICE LA CROSSE WI  
400 AM CDT SAT JUL 20 2024  
 
NOTE: "FAIR" INDICATES FEW OR NO CLOUDS BELOW 12,000 FEET WITH NO  
SIGNIFICANT WEATER AND/OR S TO VISIBILITY
.  
 
MNZ077-085>088-093>096-201000  
SOUTHEAST MINNESOTA  
 
CITY SKY/WX TMP DP RH WIND PRES REMARKS
 
ROCHESTER CLOUDY 65 60 84 S7 30.10S  
WINONA N/A N/A N/A N/A MISG N/A  
AUSTIN CLOUDY 66 63 88 S6 30.11S  
ALBERT LEA CLOUDY 66 61 82 S5 30.10S  
DODGE CENTER CLOUDY 66 61 82 CALM 30.11R  
PRESTON CLOUDY 64 63 94 SW6 30.11R  
OWATONNA CLOUDY 68 63 83 S3 30.09R  
FARIBAULT CLOUDY 70 63 78 CALM 30.09R  

 
 
WIZ041-042-053>056-061-201000  
SOUTHWEST WISCONSIN  
 
CITY SKY/WX TMP DP RH WIND PRES REMARKS
 
LA CROSSE PTCLDY 65 60 84 E3 30.09R  
SPARTA PTCLDY 53 53 99 CALM 30.08S  
WIS DELLS PTCLDY 58 57 97 CALM 30.11R  
PRAIRIE DU CHI MOCLDY 60 58 92 CALM 30.11R  
BOSCOBEL MOCLDY 58 57 97 CALM 30.11S FOG  
LONE ROCK MOCLDY 58 57 97 CALM 30.11R  
PLATTEVILLE CLOUDY 61 60 95 S3 30.13S  

 
 
WIZ017-030-034>036-043>045-201000  
CENTRAL WISCONSIN  
 
CITY SKY/WX TMP DP RH WIND PRES REMARKS
 
MEDFORD N/A 55 54 97 CALM 30.10S VSB 3/4  
WAUSAU NOT AVBL  
BLACK RVR FLS PTCLDY 52 52 100 CALM 30.10R  
WIS RAPIDS CLEAR 57 56 96 CALM 30.10S FOG  
MARSHFIELD CLEAR 59 57 93 CALM 30.10S  
MAUSTON PTCLDY 58 58 100 CALM 30.10S  
CAMP DOUGLAS PTCLDY 57 55 95 CALM 30.08R  
WAUTOMA CLEAR 56 56 100 CALM 30.10S  

 
 
IAZ008>011-017>019-029-030-201000  
NORTHEAST IOWA  
 
CITY SKY/WX TMP DP RH WIND PRES REMARKS
 
WATERLOO CLOUDY 68 59 73 S5 30.10S  
DUBUQUE CLOUDY 60 57 89 CALM 30.13R  
DECORAH MOCLDY 64 61 88 S3 30.10S  
MASON CITY CLOUDY 64 61 90 S8 30.12R  
CHARLES CITY CLOUDY 66 64 94 CALM 30.12R  
OELWEIN MOCLDY 63 63 100 S5 30.12S  

 
 
WIND SPEEDS ARE IN MILES PER HOUR.  
 
ABBREVIATIONS USED IN THE REMARKS:  
VSB - VISIBILITY IN STATUTE MILES  
WCI - WIND CHILL INDEX  
HX - HEAT INDEX  
 
 
CLICK HERE TO GO TO PREVIOUS BULLETINS.

The Nexlab WI Page
The Nexlab IA Page
The Nexlab MN Page Main Text Page